When you browse on this site, cookies collect data to enhance your experience and personalize the content and advertising you see.
Visit our Privacy Policy to learn more. By continuing to use the site, you agree to this use of cookies and data.
  • In Österreich
  • Länderverzeichnis
  • Für 7 Tage
  • Wassertemperatur
  • Wetterkarte
  • News
  • Widgets
  • user-avatar
    Anmelden

    Stündliche Wetter Olympia

    Heute, 25 Mai, Montag

    Zeit Temperatur Niederschläge Wind Luftdruck Luftfeuchtigkeit
    00:00 +18°C° 0 mm 1 m/S 764 mmHg 78%
    01:00 +18°C° 0 mm 1 m/S 764 mmHg 75%
    02:00 +18°C° 0 mm 1 m/S 763 mmHg 72%
    03:00 +18°C° 0 mm 1 m/S 763 mmHg 69%
    04:00 +18°C° 0 mm 1 m/S 763 mmHg 66%
    05:00 +20°C° 0 mm 1 m/S 763 mmHg 60%
    06:00 +22°C° 0 mm 1 m/S 763 mmHg 55%
    07:00 +24°C° 0 mm 1 m/S 763 mmHg 49%
    08:00 +26°C° 0 mm 2 m/S 763 mmHg 46%
    09:00 +27°C° 0 mm 2 m/S 763 mmHg 43%
    10:00 +28°C° 0 mm 3 m/S 763 mmHg 39%
    11:00 +28°C° 0 mm 3 m/S 763 mmHg 41%
    12:00 +28°C° 0 mm 4 m/S 763 mmHg 42%
    13:00 +29°C° 0 mm 4 m/S 762 mmHg 43%
    14:00 +28°C° 0 mm 5 m/S 762 mmHg 46%
    15:00 +27°C° 0 mm 5 m/S 762 mmHg 50%
    16:00 +26°C° 0 mm 5 m/S 762 mmHg 53%
    17:00 +23°C° 0 mm 5 m/S 762 mmHg 60%
    18:00 +21°C° 0 mm 5 m/S 762 mmHg 68%
    19:00 +19°C° 0 mm 5 m/S 762 mmHg 76%
    20:00 +18°C° 0 mm 4 m/S 762 mmHg 78%
    21:00 +18°C° 0 mm 4 m/S 762 mmHg 81%
    22:00 +17°C° 0 mm 3 m/S 763 mmHg 83%
    23:00 +17°C° 0 mm 3 m/S 763 mmHg 85%

    Morgen, 26 Mai, Dienstag

    Zeit Temperatur Niederschläge Wind Luftdruck Luftfeuchtigkeit
    00:00 +16°C° 0 mm 2 m/S 762 mmHg 86%
    01:00 +16°C° 0 mm 2 m/S 762 mmHg 87%
    02:00 +16°C° 0 mm 2 m/S 762 mmHg 87%
    03:00 +16°C° 0 mm 2 m/S 762 mmHg 87%
    04:00 +15°C° 0 mm 2 m/S 762 mmHg 87%
    05:00 +17°C° 0 mm 2 m/S 762 mmHg 78%
    06:00 +20°C° 0 mm 2 m/S 762 mmHg 69%
    07:00 +23°C° 0 mm 2 m/S 762 mmHg 60%
    08:00 +24°C° 0.1 mm 2 m/S 762 mmHg 55%
    09:00 +25°C° 0.1 mm 3 m/S 762 mmHg 50%
    10:00 +26°C° 0.1 mm 3 m/S 762 mmHg 45%
    11:00 +26°C° 0.1 mm 4 m/S 762 mmHg 46%
    12:00 +24°C° 0.1 mm 6 m/S 762 mmHg 46%
    13:00 +24°C° 0.1 mm 7 m/S 761 mmHg 47%
    14:00 +24°C° 0.1 mm 7 m/S 761 mmHg 48%
    15:00 +23°C° 0.1 mm 8 m/S 761 mmHg 48%
    16:00 +23°C° 0.1 mm 8 m/S 761 mmHg 49%
    17:00 +21°C° 0.1 mm 8 m/S 761 mmHg 56%
    18:00 +18°C° 0.1 mm 7 m/S 761 mmHg 62%
    19:00 +16°C° 0.1 mm 6 m/S 761 mmHg 69%
    20:00 +16°C° 0.1 mm 6 m/S 761 mmHg 73%
    21:00 +15°C° 0.1 mm 5 m/S 761 mmHg 76%
    22:00 +15°C° 0.1 mm 5 m/S 761 mmHg 80%
    23:00 +14°C° 0.3 mm 5 m/S 761 mmHg 83%

    übermorgen, 27 Mai, Mittwoch

    Zeit Temperatur Niederschläge Wind Luftdruck Luftfeuchtigkeit
    00:00 +14°C° 0.3 mm 4 m/S 761 mmHg 85%
    01:00 +13°C° 0.3 mm 4 m/S 761 mmHg 87%
    02:00 +13°C° 0.1 mm 4 m/S 761 mmHg 87%
    03:00 +13°C° 0.1 mm 4 m/S 761 mmHg 87%
    04:00 +13°C° 0.1 mm 3 m/S 761 mmHg 87%
    05:00 +14°C° 0 mm 3 m/S 761 mmHg 80%
    06:00 +17°C° 0 mm 3 m/S 761 mmHg 72%
    07:00 +19°C° 0 mm 2 m/S 761 mmHg 65%
    08:00 +20°C° 0.2 mm 3 m/S 762 mmHg 60%
    09:00 +21°C° 0.2 mm 3 m/S 762 mmHg 55%
    10:00 +24°C° 0.2 mm 3 m/S 762 mmHg 51%
    11:00 +22°C° 0.5 mm 3 m/S 762 mmHg 52%
    12:00 +22°C° 0.5 mm 4 m/S 762 mmHg 53%
    13:00 +22°C° 0.5 mm 4 m/S 762 mmHg 55%
    14:00 +21°C° 0.8 mm 5 m/S 762 mmHg 58%
    15:00 +20°C° 0.8 mm 6 m/S 762 mmHg 62%
    16:00 +20°C° 0.8 mm 6 m/S 761 mmHg 65%
    17:00 +19°C° 0.3 mm 6 m/S 762 mmHg 71%
    18:00 +16°C° 0.3 mm 5 m/S 762 mmHg 76%
    19:00 +15°C° 0.3 mm 4 m/S 762 mmHg 82%
    20:00 +15°C° 0 mm 4 m/S 762 mmHg 82%
    21:00 +14°C° 0 mm 4 m/S 763 mmHg 83%
    22:00 +14°C° 0 mm 4 m/S 763 mmHg 83%
    23:00 +14°C° 0 mm 3 m/S 763 mmHg 83%

    28 Mai, Donnerstag

    Zeit Temperatur Niederschläge Wind Luftdruck Luftfeuchtigkeit
    00:00 +13°C° 0 mm 3 m/S 763 mmHg 82%
    01:00 +14°C° 0 mm 2 m/S 763 mmHg 81%
    02:00 +14°C° 0 mm 2 m/S 763 mmHg 80%
    03:00 +13°C° 0 mm 2 m/S 762 mmHg 78%
    04:00 +13°C° 0 mm 2 m/S 762 mmHg 76%
    05:00 +15°C° 0 mm 2 m/S 762 mmHg 69%
    06:00 +18°C° 0 mm 1 m/S 763 mmHg 62%
    07:00 +20°C° 0 mm 1 m/S 763 mmHg 54%
    08:00 +21°C° 0 mm 2 m/S 763 mmHg 49%
    09:00 +23°C° 0 mm 2 m/S 763 mmHg 43%
    10:00 +25°C° 0 mm 2 m/S 763 mmHg 37%
    11:00 +25°C° 0 mm 3 m/S 763 mmHg 39%
    12:00 +25°C° 0 mm 3 m/S 762 mmHg 40%
    13:00 +25°C° 0 mm 4 m/S 762 mmHg 41%
    14:00 +25°C° 0.1 mm 4 m/S 762 mmHg 46%
    15:00 +23°C° 0.1 mm 4 m/S 762 mmHg 50%
    16:00 +23°C° 0.1 mm 5 m/S 762 mmHg 54%
    17:00 +21°C° 0.2 mm 4 m/S 762 mmHg 63%
    18:00 +19°C° 0.2 mm 4 m/S 762 mmHg 73%
    19:00 +17°C° 0.2 mm 3 m/S 762 mmHg 82%
    20:00 +17°C° 0 mm 3 m/S 762 mmHg 84%
    21:00 +17°C° 0 mm 3 m/S 762 mmHg 85%
    22:00 +16°C° 0 mm 3 m/S 762 mmHg 87%
    23:00 +16°C° 0 mm 3 m/S 762 mmHg 87%

    29 Mai, Freitag

    Zeit Temperatur Niederschläge Wind Luftdruck Luftfeuchtigkeit
    00:00 +16°C° 0 mm 3 m/S 762 mmHg 88%
    01:00 +16°C° 0 mm 2 m/S 762 mmHg 88%
    02:00 +16°C° 0 mm 2 m/S 761 mmHg 89%
    03:00 +15°C° 0 mm 2 m/S 761 mmHg 89%
    04:00 +15°C° 0 mm 1 m/S 761 mmHg 89%
    05:00 +18°C° 0 mm 1 m/S 761 mmHg 83%
    06:00 +20°C° 0 mm 1 m/S 761 mmHg 76%
    07:00 +22°C° 0 mm 1 m/S 762 mmHg 70%
    08:00 +23°C° 0 mm 2 m/S 762 mmHg 63%
    09:00 +24°C° 0 mm 2 m/S 762 mmHg 56%
    10:00 +26°C° 0 mm 2 m/S 762 mmHg 49%
    11:00 +26°C° 0 mm 3 m/S 762 mmHg 50%
    12:00 +26°C° 0 mm 4 m/S 761 mmHg 50%
    13:00 +26°C° 0 mm 5 m/S 761 mmHg 51%
    14:00 +25°C° 0 mm 5 m/S 761 mmHg 52%
    15:00 +25°C° 0 mm 5 m/S 761 mmHg 54%
    16:00 +23°C° 0 mm 5 m/S 761 mmHg 56%
    17:00 +21°C° 0 mm 5 m/S 761 mmHg 63%
    18:00 +20°C° 0 mm 5 m/S 761 mmHg 70%
    19:00 +18°C° 0 mm 4 m/S 761 mmHg 77%
    20:00 +17°C° 0 mm 4 m/S 761 mmHg 80%
    21:00 +17°C° 0 mm 4 m/S 761 mmHg 83%
    22:00 +16°C° 0 mm 3 m/S 761 mmHg 85%
    23:00 +16°C° 0 mm 3 m/S 761 mmHg 86%

    30 Mai, Samstag

    Zeit Temperatur Niederschläge Wind Luftdruck Luftfeuchtigkeit
    00:00 +16°C° 0 mm 2 m/S 761 mmHg 86%
    01:00 +16°C° 0 mm 2 m/S 761 mmHg 86%
    02:00 +15°C° 0 mm 2 m/S 761 mmHg 87%
    03:00 +15°C° 0 mm 2 m/S 761 mmHg 88%
    04:00 +15°C° 0 mm 2 m/S 761 mmHg 89%
    05:00 +18°C° 0 mm 1 m/S 761 mmHg 80%
    06:00 +20°C° 0 mm 1 m/S 761 mmHg 71%
    07:00 +22°C° 0 mm 1 m/S 761 mmHg 62%
    08:00 +23°C° 0 mm 1 m/S 761 mmHg 57%
    09:00 +25°C° 0 mm 2 m/S 761 mmHg 51%
    10:00 +26°C° 0 mm 2 m/S 761 mmHg 45%
    11:00 +26°C° 0 mm 3 m/S 761 mmHg 44%
    12:00 +26°C° 0 mm 3 m/S 761 mmHg 42%
    13:00 +27°C° 0 mm 4 m/S 761 mmHg 41%
    14:00 +26°C° 0 mm 4 m/S 761 mmHg 44%
    15:00 +26°C° 0 mm 4 m/S 761 mmHg 48%
    16:00 +25°C° 0 mm 4 m/S 761 mmHg 51%
    17:00 +22°C° 0 mm 4 m/S 761 mmHg 61%
    18:00 +20°C° 0 mm 4 m/S 761 mmHg 70%
    19:00 +19°C° 0 mm 3 m/S 761 mmHg 80%
    20:00 +18°C° 0 mm 3 m/S 761 mmHg 82%
    21:00 +18°C° 0 mm 2 m/S 761 mmHg 85%
    22:00 +17°C° 0 mm 2 m/S 761 mmHg 88%
    23:00 +17°C° 0 mm 2 m/S 761 mmHg 86%
    Mehr zeigen